Location: Helion Bumpstead
(52.0500°N, 0.4000°E)
Time: 21:45:20
(UTC+00:00)

Cosmos 2263 - Pass Details

Date: 15 November 2025
Orbit: 828 x 865 km, 70.9° (Epoch: 06 December)

Event Time Altitude Azimuth Distance (km) Brightness Sun altitude
Exits shadow 05:06:18 16° 333° (NNW) 2,149 6.0 -20.1°
Maximum altitude 05:11:07 75° 57° (ENE) 901 4.4 -19.4°
Drops below altitude 10° 05:16:53 10° 143° (SE) 2,500 7.2 -18.5°
Sets 05:19:20 0° 145° (SE) 3,430 8.0 -18.1°
